Time,TemperatureF,DewpointF,PressureIn,WindDirection,WindDirectionDegrees,WindSpeedMPH,WindSpeedGustMPH,Humidity,HourlyPrecipIn,Conditions,Clouds,dailyrainin,SoftwareType,DateUTC
2013-10-02 00:00:00,59.8,56.9,30.03,SW,217,0.0,0.0,90,0.00,,CLR,0.00,VWS V14.01,2013-10-02 04:00:00,
2013-10-02 00:01:00,58.9,56.9,30.03,SW,217,0.0,0.0,93,0.00,,CLR,0.00,VWS V14.01,2013-10-02 04:01:00,
2013-10-02 00:02:00,58.9,56.9,30.03,SW,217,0.0,0.0,93,0.00,,CLR,0.00,VWS V14.01,2013-10-02 04:02:00,
2013-10-02 00:07:00,58.9,56.9,30.03,SW,217,0.0,0.0,93,0.00,,CLR,0.00,VWS V14.01,2013-10-02 04:07:00,
2013-10-02 00:12:00,58.9,56.9,30.03,SW,217,0.0,0.0,93,0.00,,CLR,0.00,VWS V14.01,2013-10-02 04:12:00,
2013-10-02 00:15:00,59.3,56.7,30.03,SW,217,0.0,0.0,91,0.00,,CLR,0.00,VWS V14.01,2013-10-02 04:15:00,
2013-10-02 00:17:00,58.7,56.7,30.03,SW,217,0.0,0.0,93,0.00,,CLR,0.00,VWS V14.01,2013-10-02 04:17:00,
2013-10-02 00:22:00,58.7,56.7,30.03,SW,217,0.0,0.0,93,0.00,,CLR,0.00,VWS V14.01,2013-10-02 04:22:00,
2013-10-02 00:27:00,58.7,56.7,30.03,SW,217,0.0,0.0,93,0.00,,CLR,0.00,VWS V14.01,2013-10-02 04:27:00,
2013-10-02 00:30:00,59.0,56.4,30.03,SW,217,0.0,0.0,91,0.00,,CLR,0.00,VWS V14.01,2013-10-02 04:30:00,
2013-10-02 00:32:00,58.7,56.7,30.03,SW,217,0.0,0.0,93,0.00,,CLR,0.00,VWS V14.01,2013-10-02 04:32:00,
2013-10-02 00:37:00,58.9,56.9,30.03,SW,217,0.0,0.0,93,0.00,,CLR,0.00,VWS V14.01,2013-10-02 04:37:00,
2013-10-02 00:42:00,58.9,57.2,30.03,SW,217,0.0,0.0,94,0.00,,CLR,0.00,VWS V14.01,2013-10-02 04:42:00,
2013-10-02 00:45:00,58.9,56.6,30.03,SW,217,0.0,0.0,92,0.00,,CLR,0.00,VWS V14.01,2013-10-02 04:45:00,
2013-10-02 00:47:00,58.9,56.9,30.04,SW,217,0.0,0.0,93,0.00,,CLR,0.00,VWS V14.01,2013-10-02 04:47:00,
2013-10-02 00:52:00,58.9,56.9,30.04,SW,217,0.0,0.0,93,0.00,,CLR,0.00,VWS V14.01,2013-10-02 04:52:00,
2013-10-02 00:57:00,58.7,56.7,30.04,SW,217,0.0,0.0,93,0.00,,CLR,0.00,VWS V14.01,2013-10-02 04:57:00,
2013-10-02 01:00:00,58.9,56.9,30.03,SW,217,0.0,0.0,93,0.00,,CLR,0.00,VWS V14.01,2013-10-02 05:00:00,
2013-10-02 01:02:00,58.6,56.6,30.03,SW,217,0.0,0.0,93,0.00,,CLR,0.00,VWS V14.01,2013-10-02 05:02:00,
2013-10-02 01:07:00,58.3,56.3,30.03,SW,217,0.0,0.0,93,0.00,,CLR,0.00,VWS V14.01,2013-10-02 05:07:00,
2013-10-02 01:12:00,58.3,56.3,30.03,SW,217,0.0,0.0,93,0.00,,CLR,0.00,VWS V14.01,2013-10-02 05:12:00,
2013-10-02 01:15:00,58.9,56.9,30.03,SW,217,0.0,0.0,93,0.00,,CLR,0.00,VWS V14.01,2013-10-02 05:15:00,
2013-10-02 01:17:00,58.3,56.6,30.04,SW,217,0.0,0.0,94,0.00,,CLR,0.00,VWS V14.01,2013-10-02 05:17:00,
2013-10-02 01:22:00,58.4,56.7,30.04,SW,217,0.0,0.0,94,0.00,,CLR,0.00,VWS V14.01,2013-10-02 05:22:00,
2013-10-02 01:27:00,58.4,56.7,30.04,SW,217,0.0,0.0,94,0.00,,CLR,0.00,VWS V14.01,2013-10-02 05:27:00,
2013-10-02 01:30:00,58.9,56.9,30.03,SW,217,0.0,0.0,93,0.00,,CLR,0.00,VWS V14.01,2013-10-02 05:30:00,
2013-10-02 01:32:00,58.4,56.7,30.04,SW,217,0.0,0.0,94,0.00,,CLR,0.00,VWS V14.01,2013-10-02 05:32:00,
2013-10-02 01:37:00,58.3,56.6,30.04,SW,217,0.0,0.0,94,0.00,,CLR,0.00,VWS V14.01,2013-10-02 05:37:00,
2013-10-02 01:42:00,58.3,56.6,30.04,SW,217,0.0,0.0,94,0.00,,CLR,0.00,VWS V14.01,2013-10-02 05:42:00,
2013-10-02 01:45:00,58.9,56.9,30.04,SW,217,0.0,0.0,93,0.00,,CLR,0.00,VWS V14.01,2013-10-02 05:45:00,
2013-10-02 01:47:00,58.1,56.4,30.04,SW,217,0.0,0.0,94,0.00,,CLR,0.00,VWS V14.01,2013-10-02 05:47:00,
2013-10-02 01:52:00,58.1,56.4,30.04,SW,217,0.0,0.0,94,0.00,,CLR,0.00,VWS V14.01,2013-10-02 05:52:00,
2013-10-02 01:57:00,58.3,56.6,30.04,SW,217,0.0,0.0,94,0.00,,CLR,0.00,VWS V14.01,2013-10-02 05:57:00,
2013-10-02 02:00:00,58.6,56.6,30.03,SW,217,0.0,0.0,93,0.00,,CLR,0.00,VWS V14.01,2013-10-02 06:00:00,
2013-10-02 02:02:00,58.1,56.4,30.04,SW,217,0.0,0.0,94,0.00,,CLR,0.00,VWS V14.01,2013-10-02 06:02:00,
2013-10-02 02:07:00,58.1,56.4,30.04,SW,217,0.0,0.0,94,0.00,,CLR,0.00,VWS V14.01,2013-10-02 06:07:00,
2013-10-02 02:12:00,58.0,56.3,30.04,SW,217,0.0,0.0,94,0.00,,CLR,0.00,VWS V14.01,2013-10-02 06:12:00,
2013-10-02 02:15:00,58.1,56.4,30.04,SW,217,0.0,0.0,94,0.00,,CLR,0.00,VWS V14.01,2013-10-02 06:15:00,
2013-10-02 02:17:00,58.0,56.3,30.04,SW,217,0.0,0.0,94,0.00,,CLR,0.00,VWS V14.01,2013-10-02 06:17:00,
2013-10-02 02:22:00,57.8,56.4,30.04,SW,217,0.0,0.0,95,0.00,,CLR,0.00,VWS V14.01,2013-10-02 06:22:00,
2013-10-02 02:27:00,57.8,56.4,30.04,SW,217,0.0,0.0,95,0.00,,CLR,0.00,VWS V14.01,2013-10-02 06:27:00,
2013-10-02 02:30:00,58.4,56.7,30.04,SW,217,0.0,0.0,94,0.00,,CLR,0.00,VWS V14.01,2013-10-02 06:30:00,
2013-10-02 02:32:00,57.6,55.9,30.05,SW,217,0.0,0.0,94,0.00,,CLR,0.00,VWS V14.01,2013-10-02 06:32:00,
2013-10-02 02:37:00,57.6,56.2,30.05,SW,217,0.0,0.0,95,0.00,,CLR,0.00,VWS V14.01,2013-10-02 06:37:00,
2013-10-02 02:42:00,57.6,56.2,30.05,SW,217,0.0,0.0,95,0.00,,CLR,0.00,VWS V14.01,2013-10-02 06:42:00,
2013-10-02 02:45:00,58.1,56.4,30.04,SW,217,0.0,0.0,94,0.00,,CLR,0.00,VWS V14.01,2013-10-02 06:45:00,
2013-10-02 02:47:00,57.5,56.1,30.05,SW,217,0.0,0.0,95,0.00,,CLR,0.00,VWS V14.01,2013-10-02 06:47:00,
2013-10-02 02:52:00,57.5,56.1,30.05,SW,217,0.0,0.0,95,0.00,,CLR,0.00,VWS V14.01,2013-10-02 06:52:00,
2013-10-02 02:57:00,57.3,55.9,30.05,SW,217,0.0,0.0,95,0.00,,CLR,0.00,VWS V14.01,2013-10-02 06:57:00,
2013-10-02 03:00:00,58.1,56.4,30.04,SW,217,0.0,0.0,94,0.00,,CLR,0.00,VWS V14.01,2013-10-02 07:00:00,
2013-10-02 03:02:00,57.2,55.8,30.05,SW,217,0.0,0.0,95,0.00,,CLR,0.00,VWS V14.01,2013-10-02 07:02:00,
2013-10-02 03:07:00,57.0,55.6,30.05,SW,217,0.0,0.0,95,0.00,,CLR,0.00,VWS V14.01,2013-10-02 07:07:00,
2013-10-02 03:12:00,56.9,55.5,30.05,SW,217,0.0,0.0,95,0.00,,CLR,0.00,VWS V14.01,2013-10-02 07:12:00,
2013-10-02 03:15:00,58.0,56.3,30.04,SW,217,0.0,0.0,94,0.00,,CLR,0.00,VWS V14.01,2013-10-02 07:15:00,
2013-10-02 03:17:00,56.7,55.3,30.05,SW,217,0.0,0.0,95,0.00,,CLR,0.00,VWS V14.01,2013-10-02 07:17:00,
2013-10-02 03:22:00,56.6,55.2,30.05,SW,217,0.0,0.0,95,0.00,,CLR,0.00,VWS V14.01,2013-10-02 07:22:00,
2013-10-02 03:27:00,56.6,55.2,30.05,SW,217,0.0,0.0,95,0.00,,CLR,0.00,VWS V14.01,2013-10-02 07:27:00,
2013-10-02 03:30:00,57.8,56.1,30.05,SW,217,0.0,0.0,94,0.00,,CLR,0.00,VWS V14.01,2013-10-02 07:30:00,
2013-10-02 03:32:00,56.6,55.2,30.05,SW,217,0.0,0.0,95,0.00,,CLR,0.00,VWS V14.01,2013-10-02 07:32:00,
2013-10-02 03:37:00,56.7,55.3,30.05,SW,217,0.0,0.0,95,0.00,,CLR,0.00,VWS V14.01,2013-10-02 07:37:00,
2013-10-02 03:42:00,56.7,55.3,30.05,SW,217,0.0,0.0,95,0.00,,CLR,0.00,VWS V14.01,2013-10-02 07:42:00,
2013-10-02 03:45:00,57.6,56.2,30.05,SW,217,0.0,0.0,95,0.00,,CLR,0.00,VWS V14.01,2013-10-02 07:45:00,
2013-10-02 03:47:00,56.7,55.3,30.05,SW,217,0.0,0.0,95,0.00,,CLR,0.00,VWS V14.01,2013-10-02 07:47:00,
2013-10-02 03:52:00,56.6,55.2,30.05,SW,217,0.0,0.0,95,0.00,,CLR,0.00,VWS V14.01,2013-10-02 07:52:00,
2013-10-02 03:57:00,56.6,55.2,30.05,SW,217,0.0,0.0,95,0.00,,CLR,0.00,VWS V14.01,2013-10-02 07:57:00,
2013-10-02 04:00:00,57.3,55.9,30.05,SW,217,0.0,0.0,95,0.00,,CLR,0.00,VWS V14.01,2013-10-02 08:00:00,
2013-10-02 04:02:00,56.6,55.2,30.05,SW,217,0.0,0.0,95,0.00,,,0.00,VWS V14.01,2013-10-02 08:02:00,
2013-10-02 04:07:00,56.6,55.2,30.05,SW,217,0.0,0.0,95,0.00,,,0.00,VWS V14.01,2013-10-02 08:07:00,
2013-10-02 04:12:00,56.7,55.3,30.05,SW,217,0.0,0.0,95,0.00,,,0.00,VWS V14.01,2013-10-02 08:12:00,
2013-10-02 04:15:00,56.9,55.5,30.05,SW,217,0.0,0.0,95,0.00,,CLR,0.00,VWS V14.01,2013-10-02 08:15:00,
2013-10-02 04:17:00,56.7,55.3,30.05,SW,217,0.0,0.0,95,0.00,,,0.00,VWS V14.01,2013-10-02 08:17:00,
2013-10-02 04:22:00,56.7,55.3,30.05,SW,217,0.0,0.0,95,0.00,,,0.00,VWS V14.01,2013-10-02 08:22:00,
2013-10-02 04:27:00,56.7,55.3,30.05,SW,217,0.0,0.0,95,0.00,,,0.00,VWS V14.01,2013-10-02 08:27:00,
2013-10-02 04:30:00,56.6,55.2,30.05,SW,217,0.0,0.0,95,0.00,,CLR,0.00,VWS V14.01,2013-10-02 08:30:00,
2013-10-02 04:32:00,56.5,55.1,30.05,SW,217,0.0,0.0,95,0.00,,,0.00,VWS V14.01,2013-10-02 08:32:00,
2013-10-02 04:37:00,56.3,54.9,30.05,SW,217,0.0,0.0,95,0.00,,,0.00,VWS V14.01,2013-10-02 08:37:00,
2013-10-02 04:42:00,56.2,54.8,30.05,SW,217,0.0,0.0,95,0.00,,,0.00,VWS V14.01,2013-10-02 08:42:00,
2013-10-02 04:45:00,56.7,55.3,30.05,SW,217,0.0,0.0,95,0.00,,CLR,0.00,VWS V14.01,2013-10-02 08:45:00,
2013-10-02 04:47:00,56.3,54.9,30.05,SW,217,0.0,0.0,95,0.00,,,0.00,VWS V14.01,2013-10-02 08:47:00,
2013-10-02 04:52:00,56.3,54.9,30.05,SW,217,0.0,0.0,95,0.00,,,0.00,VWS V14.01,2013-10-02 08:52:00,
2013-10-02 04:57:00,56.3,54.9,30.05,SW,217,0.0,0.0,95,0.00,,,0.00,VWS V14.01,2013-10-02 08:57:00,
2013-10-02 05:00:00,56.6,55.2,30.05,SW,217,0.0,0.0,95,0.00,,CLR,0.00,VWS V14.01,2013-10-02 09:00:00,
2013-10-02 05:02:00,56.3,54.9,30.05,SW,217,0.0,0.0,95,0.00,,,0.00,VWS V14.01,2013-10-02 09:02:00,
2013-10-02 05:07:00,56.2,54.8,30.05,SW,217,0.0,0.0,95,0.00,,,0.00,VWS V14.01,2013-10-02 09:07:00,
2013-10-02 05:12:00,56.2,54.8,30.05,SW,217,0.0,0.0,95,0.00,,,0.00,VWS V14.01,2013-10-02 09:12:00,
2013-10-02 05:15:00,56.7,55.3,30.05,SW,217,0.0,0.0,95,0.00,,CLR,0.00,VWS V14.01,2013-10-02 09:15:00,
2013-10-02 05:17:00,56.0,54.6,30.06,SW,217,0.0,0.0,95,0.00,,,0.00,VWS V14.01,2013-10-02 09:17:00,
2013-10-02 05:22:00,56.0,54.6,30.06,SW,217,0.0,0.0,95,0.00,,,0.00,VWS V14.01,2013-10-02 09:22:00,
2013-10-02 05:27:00,56.0,54.6,30.06,SW,217,0.0,0.0,95,0.00,,,0.00,VWS V14.01,2013-10-02 09:27:00,
2013-10-02 05:30:00,56.5,55.1,30.05,SW,217,0.0,0.0,95,0.00,,CLR,0.00,VWS V14.01,2013-10-02 09:30:00,
2013-10-02 05:32:00,55.9,54.5,30.06,SW,217,0.0,0.0,95,0.00,,,0.00,VWS V14.01,2013-10-02 09:32:00,
2013-10-02 05:37:00,55.9,54.5,30.06,SW,217,0.0,0.0,95,0.00,,,0.00,VWS V14.01,2013-10-02 09:37:00,
2013-10-02 05:42:00,55.9,54.5,30.06,SW,217,0.0,0.0,95,0.00,,,0.00,VWS V14.01,2013-10-02 09:42:00,
2013-10-02 05:45:00,56.3,54.9,30.05,SW,217,0.0,0.0,95,0.00,,CLR,0.00,VWS V14.01,2013-10-02 09:45:00,
2013-10-02 05:47:00,56.0,54.6,30.06,SW,217,0.0,0.0,95,0.00,,,0.00,VWS V14.01,2013-10-02 09:47:00,
2013-10-02 05:52:00,56.0,54.9,30.06,SW,217,0.0,0.0,96,0.00,,,0.00,VWS V14.01,2013-10-02 09:52:00,
2013-10-02 05:57:00,56.0,54.6,30.06,SW,217,0.0,0.0,95,0.00,,,0.00,VWS V14.01,2013-10-02 09:57:00,
2013-10-02 06:00:00,56.3,54.9,30.05,SW,217,0.0,0.0,95,0.00,,CLR,0.00,VWS V14.01,2013-10-02 10:00:00,
2013-10-02 06:02:00,56.0,54.6,30.06,SW,217,0.0,0.0,95,0.00,,FEW034,0.00,VWS V14.01,2013-10-02 10:02:00,
2013-10-02 06:07:00,55.9,54.5,30.06,SW,217,0.0,0.0,95,0.00,,FEW034,0.00,VWS V14.01,2013-10-02 10:07:00,
2013-10-02 06:12:00,55.9,54.5,30.06,SW,217,0.0,0.0,95,0.00,,FEW034,0.00,VWS V14.01,2013-10-02 10:12:00,
2013-10-02 06:15:00,56.0,54.6,30.06,SW,217,0.0,0.0,95,0.00,,CLR,0.00,VWS V14.01,2013-10-02 10:15:00,
2013-10-02 06:17:00,55.6,54.2,30.07,SW,217,0.0,0.0,95,0.00,,FEW034,0.00,VWS V14.01,2013-10-02 10:17:00,
2013-10-02 06:22:00,55.4,54.0,30.07,SW,217,0.0,0.0,95,0.00,,FEW034,0.00,VWS V14.01,2013-10-02 10:22:00,
2013-10-02 06:27:00,55.3,53.9,30.07,SW,217,0.0,0.0,95,0.00,,FEW034,0.00,VWS V14.01,2013-10-02 10:27:00,
2013-10-02 06:30:00,56.0,54.6,30.06,SW,217,0.0,0.0,95,0.00,,CLR,0.00,VWS V14.01,2013-10-02 10:30:00,
2013-10-02 06:32:00,55.1,53.7,30.07,SW,217,0.0,0.0,95,0.00,,FEW034,0.00,VWS V14.01,2013-10-02 10:32:00,
2013-10-02 06:37:00,54.8,53.4,30.07,SW,217,0.0,0.0,95,0.00,,FEW034,0.00,VWS V14.01,2013-10-02 10:37:00,
2013-10-02 06:42:00,54.7,53.3,30.07,SW,217,0.0,0.0,95,0.00,,FEW034,0.00,VWS V14.01,2013-10-02 10:42:00,
2013-10-02 06:45:00,56.0,54.9,30.06,SW,217,0.0,0.0,96,0.00,,CLR,0.00,VWS V14.01,2013-10-02 10:45:00,
2013-10-02 06:47:00,54.7,53.6,30.08,SW,217,0.0,0.0,96,0.00,,FEW034,0.00,VWS V14.01,2013-10-02 10:47:00,
2013-10-02 06:52:00,55.0,53.9,30.08,SW,217,0.0,0.0,96,0.00,,FEW034,0.00,VWS V14.01,2013-10-02 10:52:00,
2013-10-02 06:57:00,55.0,53.9,30.08,SW,217,0.0,0.0,96,0.00,,FEW034,0.00,VWS V14.01,2013-10-02 10:57:00,
2013-10-02 07:00:00,56.0,54.6,30.06,SW,217,0.0,0.0,95,0.00,,CLR,0.00,VWS V14.01,2013-10-02 11:00:00,
2013-10-02 07:02:00,55.0,53.6,30.08,SW,217,0.0,0.0,95,0.00,,SCT060,0.00,VWS V14.01,2013-10-02 11:02:00,
2013-10-02 07:07:00,54.8,53.4,30.08,SW,217,0.0,0.0,95,0.00,,SCT060,0.00,VWS V14.01,2013-10-02 11:07:00,
2013-10-02 07:12:00,54.8,53.4,30.08,SW,217,0.0,0.0,95,0.00,,SCT060,0.00,VWS V14.01,2013-10-02 11:12:00,
2013-10-02 07:15:00,55.7,54.3,30.07,SW,217,0.0,0.0,95,0.00,,CLR,0.00,VWS V14.01,2013-10-02 11:15:00,
2013-10-02 07:17:00,54.7,53.3,30.08,SW,217,0.0,0.0,95,0.00,,SCT060,0.00,VWS V14.01,2013-10-02 11:17:00,
2013-10-02 07:22:00,54.7,53.6,30.08,SW,217,0.0,0.0,96,0.00,,SCT060,0.00,VWS V14.01,2013-10-02 11:22:00,
2013-10-02 07:27:00,54.8,53.7,30.08,SW,217,0.0,0.0,96,0.00,,SCT060,0.00,VWS V14.01,2013-10-02 11:27:00,
2013-10-02 07:30:00,55.1,53.7,30.07,SW,217,0.0,0.0,95,0.00,,CLR,0.00,VWS V14.01,2013-10-02 11:30:00,
2013-10-02 07:32:00,55.0,53.9,30.09,SW,217,0.0,0.0,96,0.00,,BKN060,0.00,VWS V14.01,2013-10-02 11:32:00,
2013-10-02 07:37:00,55.0,53.9,30.09,SW,217,0.0,0.0,96,0.00,,BKN060,0.00,VWS V14.01,2013-10-02 11:37:00,
2013-10-02 07:42:00,55.1,54.0,30.09,SW,217,0.0,0.0,96,0.00,,BKN060,0.00,VWS V14.01,2013-10-02 11:42:00,
2013-10-02 07:45:00,54.7,53.3,30.08,SW,217,0.0,0.0,95,0.00,,CLR,0.00,VWS V14.01,2013-10-02 11:45:00,
2013-10-02 07:47:00,55.3,54.2,30.09,SW,217,0.0,0.0,96,0.00,,,0.00,VWS V14.01,2013-10-02 11:47:00,
2013-10-02 07:52:00,55.3,54.2,30.09,SW,217,0.0,0.0,96,0.00,,,0.00,VWS V14.01,2013-10-02 11:52:00,
2013-10-02 07:57:00,55.4,54.3,30.09,SW,217,0.0,0.0,96,0.00,,,0.00,VWS V14.01,2013-10-02 11:57:00,
2013-10-02 08:00:00,55.0,53.6,30.08,SW,217,0.0,0.0,95,0.00,,CLR,0.00,VWS V14.01,2013-10-02 12:00:00,
2013-10-02 08:02:00,55.3,54.2,30.09,SW,217,0.0,0.0,96,0.00,,FEW026,0.00,VWS V14.01,2013-10-02 12:02:00,
2013-10-02 08:07:00,55.3,54.2,30.09,SW,217,0.0,0.0,96,0.00,,FEW026,0.00,VWS V14.01,2013-10-02 12:07:00,
2013-10-02 08:12:00,55.6,54.5,30.09,SW,217,0.0,0.0,96,0.00,,FEW026,0.00,VWS V14.01,2013-10-02 12:12:00,
2013-10-02 08:15:00,54.7,53.3,30.08,SW,217,0.0,0.0,95,0.00,,CLR,0.00,VWS V14.01,2013-10-02 12:15:00,
2013-10-02 08:17:00,56.0,55.5,30.10,SW,217,0.0,0.0,98,0.00,,FEW026,0.00,VWS V14.01,2013-10-02 12:17:00,
2013-10-02 08:22:00,56.5,56.5,30.10,SW,217,0.0,0.0,100,0.00,,FEW026,0.00,VWS V14.01,2013-10-02 12:22:00,
2013-10-02 08:27:00,57.0,57.0,30.10,SW,217,0.0,0.0,100,0.00,,FEW026,0.00,VWS V14.01,2013-10-02 12:27:00,
2013-10-02 08:30:00,55.0,53.9,30.09,SW,217,0.0,0.0,96,0.00,,CLR,0.00,VWS V14.01,2013-10-02 12:30:00,
2013-10-02 08:32:00,57.5,57.5,30.10,SW,217,0.0,0.0,100,0.00,,FEW026,0.00,VWS V14.01,2013-10-02 12:32:00,
2013-10-02 08:37:00,58.3,58.3,30.10,SW,217,0.0,0.0,100,0.00,,FEW026,0.00,VWS V14.01,2013-10-02 12:37:00,
2013-10-02 08:42:00,58.7,58.7,30.10,SW,217,0.0,0.0,100,0.00,,FEW026,0.00,VWS V14.01,2013-10-02 12:42:00,
2013-10-02 08:45:00,55.3,54.2,30.09,SW,217,0.0,0.0,96,0.00,,CLR,0.00,VWS V14.01,2013-10-02 12:45:00,
2013-10-02 08:47:00,58.9,58.9,30.10,SW,217,0.0,0.0,100,0.00,,,0.00,VWS V14.01,2013-10-02 12:47:00,
2013-10-02 08:52:00,59.2,59.2,30.10,SW,217,0.0,0.0,100,0.00,,,0.00,VWS V14.01,2013-10-02 12:52:00,
2013-10-02 08:57:00,59.5,59.5,30.10,SW,217,0.0,0.0,100,0.00,,,0.00,VWS V14.01,2013-10-02 12:57:00,
2013-10-02 09:00:00,55.3,54.2,30.09,SW,217,0.0,0.0,96,0.00,,CLR,0.00,VWS V14.01,2013-10-02 13:00:00,
2013-10-02 09:02:00,59.8,59.8,30.10,SW,217,0.0,0.0,100,0.00,,SCT023,0.00,VWS V14.01,2013-10-02 13:02:00,
2013-10-02 09:07:00,60.1,60.1,30.10,SW,217,0.0,0.0,100,0.00,,SCT023,0.00,VWS V14.01,2013-10-02 13:07:00,
2013-10-02 09:12:00,60.5,60.5,30.10,SW,217,0.0,1.0,100,0.00,,SCT023,0.00,VWS V14.01,2013-10-02 13:12:00,
2013-10-02 09:15:00,55.9,55.3,30.10,SW,217,0.0,0.0,98,0.00,,CLR,0.00,VWS V14.01,2013-10-02 13:15:00,
2013-10-02 09:17:00,61.2,61.2,30.10,SW,217,0.0,1.0,100,0.00,,SCT023,0.00,VWS V14.01,2013-10-02 13:17:00,
2013-10-02 09:22:00,62.0,62.0,30.10,SW,217,0.0,0.0,100,0.00,,SCT023,0.00,VWS V14.01,2013-10-02 13:22:00,
2013-10-02 09:27:00,62.6,62.6,30.10,SW,217,0.0,0.0,100,0.00,,SCT023,0.00,VWS V14.01,2013-10-02 13:27:00,
2013-10-02 09:30:00,57.2,57.2,30.10,SW,217,0.0,0.0,100,0.00,,CLR,0.00,VWS V14.01,2013-10-02 13:30:00,
2013-10-02 09:32:00,63.5,62.9,30.11,SW,217,0.0,0.0,98,0.00,,SCT023,0.00,VWS V14.01,2013-10-02 13:32:00,
2013-10-02 09:37:00,64.0,62.5,30.11,SW,217,0.0,2.0,95,0.00,,SCT023,0.00,VWS V14.01,2013-10-02 13:37:00,
2013-10-02 09:42:00,64.7,62.9,30.11,SW,217,0.0,2.0,94,0.00,,SCT023,0.00,VWS V14.01,2013-10-02 13:42:00,
2013-10-02 09:45:00,58.7,58.7,30.10,SW,217,0.0,0.0,100,0.00,,CLR,0.00,VWS V14.01,2013-10-02 13:45:00,
2013-10-02 09:47:00,65.0,62.9,30.11,SW,217,0.0,1.0,93,0.00,,BKN021,0.00,VWS V14.01,2013-10-02 13:47:00,
2013-10-02 09:52:00,65.5,63.4,30.11,SW,217,0.0,1.0,93,0.00,,BKN021,0.00,VWS V14.01,2013-10-02 13:52:00,
2013-10-02 09:57:00,66.1,63.7,30.11,SW,217,0.0,1.0,92,0.00,,BKN021,0.00,VWS V14.01,2013-10-02 13:57:00,
2013-10-02 10:00:00,59.6,59.6,30.10,SW,217,0.0,0.0,100,0.00,,CLR,0.00,VWS V14.01,2013-10-02 14:00:00,
2013-10-02 10:02:00,66.6,63.6,30.11,SW,217,0.0,1.0,90,0.00,,OVC023,0.00,VWS V14.01,2013-10-02 14:02:00,
2013-10-02 10:07:00,67.1,63.8,30.11,SW,217,0.0,1.0,89,0.00,,OVC023,0.00,VWS V14.01,2013-10-02 14:07:00,
2013-10-02 10:11:00,67.6,63.6,30.11,WSW,246,0.0,6.0,87,0.00,,OVC023,0.00,VWS V14.01,2013-10-02 14:11:00,
2013-10-02 10:15:00,60.9,60.9,30.10,SW,217,0.0,1.0,100,0.00,,CLR,0.00,VWS V14.01,2013-10-02 14:15:00,
2013-10-02 10:16:00,68.3,64.0,30.11,WSW,251,1.0,6.0,86,0.00,,OVC023,0.00,VWS V14.01,2013-10-02 14:16:00,
2013-10-02 10:21:00,68.6,63.9,30.11,SW,219,1.0,5.0,85,0.00,,OVC023,0.00,VWS V14.01,2013-10-02 14:21:00,
2013-10-02 10:26:00,68.9,63.9,30.11,WSW,239,3.0,5.0,84,0.00,,OVC023,0.00,VWS V14.01,2013-10-02 14:26:00,
2013-10-02 10:30:00,63.2,62.9,30.11,SW,217,0.0,0.0,99,0.00,,CLR,0.00,VWS V14.01,2013-10-02 14:30:00,
2013-10-02 10:31:00,69.6,64.2,30.11,SW,233,0.0,5.0,83,0.00,,OVC023,0.00,VWS V14.01,2013-10-02 14:31:00,
2013-10-02 10:36:00,70.4,64.7,30.11,West,270,6.0,6.0,82,0.00,,OVC023,0.00,VWS V14.01,2013-10-02 14:36:00,
2013-10-02 10:41:00,71.3,64.8,30.11,West,270,1.0,6.0,80,0.00,,OVC023,0.00,VWS V14.01,2013-10-02 14:41:00,
2013-10-02 10:45:00,64.8,62.7,30.11,SW,217,0.0,2.0,93,0.00,,CLR,0.00,VWS V14.01,2013-10-02 14:45:00,
2013-10-02 10:46:00,71.8,64.9,30.11,WSW,251,0.0,6.0,79,0.00,,SCT025,0.00,VWS V14.01,2013-10-02 14:46:00,
2013-10-02 10:51:00,72.3,64.7,30.11,WSW,246,0.0,5.0,77,0.00,,SCT025,0.00,VWS V14.01,2013-10-02 14:51:00,
2013-10-02 10:56:00,73.0,65.7,30.11,WSW,240,0.0,5.0,78,0.00,,SCT025,0.00,VWS V14.01,2013-10-02 14:56:00,
2013-10-02 11:00:00,66.4,63.7,30.11,SW,217,0.0,1.0,91,0.00,,CLR,0.00,VWS V14.01,2013-10-02 15:00:00,
2013-10-02 11:01:00,73.7,65.7,30.10,SW,219,1.0,6.0,76,0.00,,BKN016,0.00,VWS V14.01,2013-10-02 15:01:00,
2013-10-02 11:06:00,73.9,65.9,30.10,WSW,240,0.0,6.0,76,0.00,,BKN016,0.00,VWS V14.01,2013-10-02 15:06:00,
2013-10-02 11:11:00,74.4,66.0,30.10,SW,234,0.0,6.0,75,0.00,,BKN016,0.00,VWS V14.01,2013-10-02 15:11:00,
2013-10-02 11:15:00,67.9,63.9,30.11,WSW,244,0.0,6.0,87,0.00,,CLR,0.00,VWS V14.01,2013-10-02 15:15:00,
2013-10-02 11:16:00,74.9,66.4,30.10,WSW,244,7.0,7.0,75,0.00,,BKN016,0.00,VWS V14.01,2013-10-02 15:16:00,
2013-10-02 11:21:00,75.4,65.8,30.10,WSW,250,0.0,7.0,72,0.00,,BKN016,0.00,VWS V14.01,2013-10-02 15:21:00,
2013-10-02 11:26:00,75.8,66.9,30.10,SW,233,2.0,5.0,74,0.00,,BKN016,0.00,VWS V14.01,2013-10-02 15:26:00,
2013-10-02 11:30:00,69.3,63.9,30.11,SW,233,0.0,5.0,83,0.00,,CLR,0.00,VWS V14.01,2013-10-02 15:30:00,
2013-10-02 11:31:00,75.6,66.3,30.10,WSW,248,0.0,6.0,73,0.00,,BKN016,0.00,VWS V14.01,2013-10-02 15:31:00,
2013-10-02 11:33:00,75.6,66.3,30.10,WSW,250,0.0,6.0,73,0.00,,BKN016,0.00,VWS V14.01,2013-10-02 15:33:00,
2013-10-02 11:38:00,75.6,67.1,30.10,WSW,250,0.0,6.0,75,0.00,,BKN016,0.00,VWS V14.01,2013-10-02 15:38:00,
2013-10-02 11:43:00,75.8,66.5,30.10,WSW,250,3.0,3.0,73,0.00,,BKN016,0.00,VWS V14.01,2013-10-02 15:43:00,
2013-10-02 11:45:00,71.5,64.3,30.11,WSW,251,0.0,6.0,78,0.00,,CLR,0.00,VWS V14.01,2013-10-02 15:45:00,
2013-10-02 11:48:00,75.6,66.7,30.10,WSW,253,0.0,6.0,74,0.00,,BKN016,0.00,VWS V14.01,2013-10-02 15:48:00,
2013-10-02 11:53:00,75.4,66.2,30.10,WSW,250,0.0,6.0,73,0.00,,BKN016,0.00,VWS V14.01,2013-10-02 15:53:00,
2013-10-02 11:58:00,75.4,66.5,30.10,WSW,250,0.0,5.0,74,0.00,,BKN016,0.00,VWS V14.01,2013-10-02 15:58:00,
2013-10-02 12:00:00,73.5,65.5,30.10,SW,219,0.0,6.0,76,0.00,,CLR,0.00,VWS V14.01,2013-10-02 16:00:00,
2013-10-02 12:03:00,76.0,66.7,30.09,WSW,240,0.0,5.0,73,0.00,,OVC034,0.00,VWS V14.01,2013-10-02 16:03:00,
2013-10-02 12:08:00,76.8,66.7,30.09,SW,232,0.0,5.0,71,0.00,,OVC034,0.00,VWS V14.01,2013-10-02 16:08:00,
2013-10-02 12:13:00,77.2,66.7,30.09,NNW,342,2.0,7.0,70,0.00,,OVC034,0.00,VWS V14.01,2013-10-02 16:13:00,
2013-10-02 12:15:00,74.7,65.9,30.10,SW,216,1.0,4.0,74,0.00,,CLR,0.00,VWS V14.01,2013-10-02 16:15:00,
2013-10-02 12:18:00,77.4,66.9,30.09,NNW,342,0.0,7.0,70,0.00,,OVC034,0.00,VWS V14.01,2013-10-02 16:18:00,
2013-10-02 12:23:00,77.4,66.4,30.09,NNW,342,1.0,3.0,69,0.00,,OVC034,0.00,VWS V14.01,2013-10-02 16:23:00,
2013-10-02 12:28:00,76.8,66.3,30.09,NNW,342,0.0,6.0,70,0.00,,OVC034,0.00,VWS V14.01,2013-10-02 16:28:00,
2013-10-02 12:30:00,75.8,66.5,30.10,WSW,246,0.0,5.0,73,0.00,,CLR,0.00,VWS V14.01,2013-10-02 16:30:00,
2013-10-02 12:33:00,76.8,67.1,30.09,NNW,342,0.0,6.0,72,0.00,,OVC034,0.00,VWS V14.01,2013-10-02 16:33:00,
2013-10-02 12:38:00,77.2,66.2,30.09,NNW,336,0.0,0.0,69,0.00,,OVC034,0.00,VWS V14.01,2013-10-02 16:38:00,
2013-10-02 12:43:00,77.6,66.2,30.09,SW,236,2.0,6.0,68,0.00,,OVC034,0.00,VWS V14.01,2013-10-02 16:43:00,
2013-10-02 12:45:00,75.8,66.1,30.10,WSW,241,5.0,6.0,72,0.00,,CLR,0.00,VWS V14.01,2013-10-02 16:45:00,
2013-10-02 12:48:00,77.9,66.9,30.09,SSW,205,0.0,6.0,69,0.00,,OVC034,0.00,VWS V14.01,2013-10-02 16:48:00,
2013-10-02 12:53:00,77.9,66.5,30.09,North,353,2.0,6.0,68,0.00,,OVC034,0.00,VWS V14.01,2013-10-02 16:53:00,
2013-10-02 12:58:00,77.0,66.1,30.09,NNW,340,0.0,6.0,69,0.00,,OVC034,0.00,VWS V14.01,2013-10-02 16:58:00,
2013-10-02 13:00:00,75.6,66.7,30.09,WSW,241,2.0,5.0,74,0.00,,CLR,0.00,VWS V14.01,2013-10-02 17:00:00,
2013-10-02 13:03:00,76.3,66.2,30.09,NNW,340,0.0,6.0,71,0.00,,OVC038,0.00,VWS V14.01,2013-10-02 17:03:00,
2013-10-02 13:08:00,76.5,66.4,30.09,NNW,340,0.0,1.0,71,0.00,,OVC038,0.00,VWS V14.01,2013-10-02 17:08:00,
2013-10-02 13:13:00,76.7,66.6,30.09,NNW,343,3.0,6.0,71,0.00,,OVC038,0.00,VWS V14.01,2013-10-02 17:13:00,
2013-10-02 13:15:00,77.4,66.4,30.09,NNW,342,0.0,7.0,69,0.00,,CLR,0.00,VWS V14.01,2013-10-02 17:15:00,
2013-10-02 13:18:00,76.8,66.7,30.09,NNW,343,0.0,6.0,71,0.00,,SCT035,0.00,VWS V14.01,2013-10-02 17:18:00,
2013-10-02 13:23:00,77.4,66.4,30.09,NW,311,0.0,3.0,69,0.00,,SCT035,0.00,VWS V14.01,2013-10-02 17:23:00,
2013-10-02 13:28:00,77.9,66.1,30.09,WNW,291,0.0,6.0,67,0.00,,SCT035,0.00,VWS V14.01,2013-10-02 17:28:00,
2013-10-02 13:30:00,76.8,66.7,30.09,NNW,342,0.0,6.0,71,0.00,,CLR,0.00,VWS V14.01,2013-10-02 17:30:00,
2013-10-02 13:33:00,77.9,66.5,30.08,WSW,244,0.0,7.0,68,0.00,,SCT035,0.00,VWS V14.01,2013-10-02 17:33:00,
2013-10-02 13:38:00,78.5,66.2,30.08,SSW,208,1.0,6.0,66,0.00,,SCT035,0.00,VWS V14.01,2013-10-02 17:38:00,
2013-10-02 13:43:00,78.6,66.7,30.08,SSW,208,0.0,6.0,67,0.00,,SCT035,0.00,VWS V14.01,2013-10-02 17:43:00,
2013-10-02 13:45:00,77.7,66.7,30.09,SSW,203,1.0,6.0,69,0.00,,CLR,0.00,VWS V14.01,2013-10-02 17:45:00,
2013-10-02 13:48:00,79.2,66.4,30.08,SSW,193,0.0,0.0,65,0.00,,BKN055,0.00,VWS V14.01,2013-10-02 17:48:00,
2013-10-02 13:53:00,79.8,66.6,30.08,West,268,0.0,3.0,64,0.00,,BKN055,0.00,VWS V14.01,2013-10-02 17:53:00,
2013-10-02 13:58:00,80.1,65.9,30.08,WSW,237,0.0,3.0,62,0.00,,BKN055,0.00,VWS V14.01,2013-10-02 17:58:00,
2013-10-02 14:00:00,76.7,66.6,30.09,NNW,340,0.0,6.0,71,0.00,,CLR,0.00,VWS V14.01,2013-10-02 18:00:00,
2013-10-02 14:03:00,80.7,66.0,30.07,SSW,202,0.0,6.0,61,0.00,,BKN055,0.00,VWS V14.01,2013-10-02 18:03:00,
2013-10-02 14:08:00,80.7,66.5,30.07,SW,227,0.0,5.0,62,0.00,,BKN055,0.00,VWS V14.01,2013-10-02 18:08:00,
2013-10-02 14:13:00,80.3,66.6,30.07,WNW,299,0.0,6.0,63,0.00,,BKN055,0.00,VWS V14.01,2013-10-02 18:13:00,
2013-10-02 14:15:00,76.7,66.2,30.09,NNW,343,0.0,6.0,70,0.00,,CLR,0.00,VWS V14.01,2013-10-02 18:15:00,
2013-10-02 14:18:00,80.1,66.8,30.07,WNW,301,0.0,2.0,64,0.00,,BKN055,0.00,VWS V14.01,2013-10-02 18:18:00,
2013-10-02 14:23:00,80.1,66.4,30.07,WNW,301,0.0,1.0,63,0.00,,BKN055,0.00,VWS V14.01,2013-10-02 18:23:00,
2013-10-02 14:28:00,80.1,65.9,30.07,WNW,301,0.0,1.0,62,0.00,,BKN055,0.00,VWS V14.01,2013-10-02 18:28:00,
2013-10-02 14:30:00,77.9,66.1,30.08,WSW,244,6.0,7.0,67,0.00,,CLR,0.00,VWS V14.01,2013-10-02 18:30:00,
2013-10-02 14:33:00,79.9,66.2,30.06,West,277,0.0,5.0,63,0.00,,BKN055,0.00,VWS V14.01,2013-10-02 18:33:00,
2013-10-02 14:38:00,79.9,65.7,30.06,West,272,0.0,5.0,62,0.00,,BKN055,0.00,VWS V14.01,2013-10-02 18:38:00,
2013-10-02 14:43:00,80.3,66.6,30.06,West,272,0.0,1.0,63,0.00,,BKN055,0.00,VWS V14.01,2013-10-02 18:43:00,
2013-10-02 14:45:00,78.8,67.4,30.08,SSW,193,0.0,5.0,68,0.00,,CLR,0.00,VWS V14.01,2013-10-02 18:45:00,
2013-10-02 14:48:00,80.5,66.8,30.06,West,275,2.0,2.0,63,0.00,,BKN055,0.00,VWS V14.01,2013-10-02 18:48:00,
2013-10-02 14:53:00,80.5,67.2,30.06,West,272,0.0,2.0,64,0.00,,BKN055,0.00,VWS V14.01,2013-10-02 18:53:00,
2013-10-02 14:58:00,81.1,67.8,30.06,SSE,158,0.0,2.0,64,0.00,,BKN055,0.00,VWS V14.01,2013-10-02 18:58:00,
2013-10-02 15:00:00,80.3,66.6,30.07,SSW,213,4.0,6.0,63,0.00,,CLR,0.00,VWS V14.01,2013-10-02 19:00:00,
2013-10-02 15:03:00,81.2,66.5,30.05,SSE,158,0.0,2.0,61,0.00,,,0.00,VWS V14.01,2013-10-02 19:03:00,
2013-10-02 15:08:00,81.6,66.9,30.05,SSE,158,0.0,0.0,61,0.00,,,0.00,VWS V14.01,2013-10-02 19:08:00,
2013-10-02 15:13:00,81.6,65.9,30.05,NW,322,0.0,3.0,59,0.00,,,0.00,VWS V14.01,2013-10-02 19:13:00,
2013-10-02 15:15:00,80.1,66.8,30.07,WNW,299,0.0,6.0,64,0.00,,CLR,0.00,VWS V14.01,2013-10-02 19:15:00,
2013-10-02 15:18:00,81.8,65.6,30.04,NW,322,0.0,2.0,58,0.00,,,0.00,VWS V14.01,2013-10-02 19:18:00,
2013-10-02 15:23:00,82.2,66.5,30.04,NW,316,0.0,2.0,59,0.00,,,0.00,VWS V14.01,2013-10-02 19:23:00,
2013-10-02 15:28:00,82.4,65.7,30.04,NW,316,0.0,2.0,57,0.00,,,0.00,VWS V14.01,2013-10-02 19:28:00,
2013-10-02 15:30:00,80.1,66.8,30.06,WNW,301,0.0,0.0,64,0.00,,CLR,0.00,VWS V14.01,2013-10-02 19:30:00,
2013-10-02 15:33:00,82.8,66.0,30.04,NW,316,0.0,1.0,57,0.00,,,0.00,VWS V14.01,2013-10-02 19:33:00,
2013-10-02 15:38:00,82.8,65.5,30.04,West,263,0.0,6.0,56,0.00,,,0.00,VWS V14.01,2013-10-02 19:38:00,
2013-10-02 15:43:00,83.0,66.2,30.04,NW,304,0.0,6.0,57,0.00,,,0.00,VWS V14.01,2013-10-02 19:43:00,
2013-10-02 15:45:00,80.3,65.6,30.06,West,278,0.0,0.0,61,0.00,,CLR,0.00,VWS V14.01,2013-10-02 19:45:00,
2013-10-02 15:48:00,82.8,66.0,30.04,WSW,246,0.0,3.0,57,0.00,,,0.00,VWS V14.01,2013-10-02 19:48:00,
2013-10-02 15:53:00,83.2,65.9,30.04,SW,226,0.0,4.0,56,0.00,,,0.00,VWS V14.01,2013-10-02 19:53:00,
2013-10-02 15:58:00,83.4,65.0,30.04,SW,215,0.0,6.0,54,0.00,,,0.00,VWS V14.01,2013-10-02 19:58:00,
2013-10-02 16:00:00,81.2,66.9,30.05,SSE,157,0.0,2.0,62,0.00,,CLR,0.00,VWS V14.01,2013-10-02 20:00:00,
2013-10-02 16:03:00,83.0,65.2,30.04,SW,215,2.0,6.0,55,0.00,,FEW038,0.00,VWS V14.01,2013-10-02 20:03:00,
2013-10-02 16:08:00,82.2,65.0,30.04,SW,224,0.0,7.0,56,0.00,,FEW038,0.00,VWS V14.01,2013-10-02 20:08:00,
2013-10-02 16:13:00,82.2,65.5,30.04,SW,224,0.0,3.0,57,0.00,,FEW038,0.00,VWS V14.01,2013-10-02 20:13:00,
2013-10-02 16:15:00,81.6,65.4,30.04,NW,320,1.0,3.0,58,0.00,,CLR,0.00,VWS V14.01,2013-10-02 20:15:00,
2013-10-02 16:18:00,82.2,65.5,30.04,SW,224,0.0,0.0,57,0.00,,FEW038,0.00,VWS V14.01,2013-10-02 20:18:00,
2013-10-02 16:23:00,82.4,65.7,30.04,SW,224,0.0,0.0,57,0.00,,FEW038,0.00,VWS V14.01,2013-10-02 20:23:00,
2013-10-02 16:28:00,82.6,65.8,30.04,SW,224,0.0,0.0,57,0.00,,FEW038,0.00,VWS V14.01,2013-10-02 20:28:00,
2013-10-02 16:30:00,82.6,66.8,30.04,NW,316,0.0,2.0,59,0.00,,CLR,0.00,VWS V14.01,2013-10-02 20:30:00,
2013-10-02 16:33:00,82.4,65.1,30.03,SW,224,0.0,0.0,56,0.00,,FEW038,0.00,VWS V14.01,2013-10-02 20:33:00,
2013-10-02 16:38:00,82.2,65.5,30.03,SW,224,0.0,0.0,57,0.00,,FEW038,0.00,VWS V14.01,2013-10-02 20:38:00,
2013-10-02 16:43:00,82.4,66.2,30.03,SW,224,0.0,0.0,58,0.00,,FEW038,0.00,VWS V14.01,2013-10-02 20:43:00,
2013-10-02 16:45:00,83.0,66.7,30.04,WNW,302,0.0,4.0,58,0.00,,CLR,0.00,VWS V14.01,2013-10-02 20:45:00,
2013-10-02 16:48:00,82.8,65.0,30.03,SW,224,0.0,0.0,55,0.00,,FEW038,0.00,VWS V14.01,2013-10-02 20:48:00,
2013-10-02 16:53:00,83.2,65.4,30.03,SW,224,0.0,0.0,55,0.00,,FEW038,0.00,VWS V14.01,2013-10-02 20:53:00,
2013-10-02 16:58:00,83.4,66.1,30.03,SW,224,0.0,0.0,56,0.00,,FEW038,0.00,VWS V14.01,2013-10-02 20:58:00,
2013-10-02 17:00:00,83.2,65.4,30.04,SW,227,3.0,6.0,55,0.00,,CLR,0.00,VWS V14.01,2013-10-02 21:00:00,
2013-10-02 17:03:00,83.4,66.1,30.03,SW,224,0.0,0.0,56,0.00,,CLR,0.00,VWS V14.01,2013-10-02 21:03:00,
2013-10-02 17:08:00,83.0,65.7,30.03,SW,223,0.0,0.0,56,0.00,,CLR,0.00,VWS V14.01,2013-10-02 21:08:00,
2013-10-02 17:13:00,82.8,66.0,30.03,SW,223,0.0,0.0,57,0.00,,CLR,0.00,VWS V14.01,2013-10-02 21:13:00,
2013-10-02 17:15:00,82.2,66.0,30.04,SW,224,0.0,3.0,58,0.00,,CLR,0.00,VWS V14.01,2013-10-02 21:15:00,
2013-10-02 17:18:00,82.6,66.8,30.02,SW,223,0.0,0.0,59,0.00,,CLR,0.00,VWS V14.01,2013-10-02 21:18:00,
2013-10-02 17:23:00,82.2,66.0,30.02,SW,223,0.0,0.0,58,0.00,,CLR,0.00,VWS V14.01,2013-10-02 21:23:00,
2013-10-02 17:28:00,81.6,66.4,30.02,SW,223,0.0,0.0,60,0.00,,CLR,0.00,VWS V14.01,2013-10-02 21:28:00,
2013-10-02 17:30:00,82.6,65.8,30.03,SW,224,0.0,0.0,57,0.00,,CLR,0.00,VWS V14.01,2013-10-02 21:30:00,
2013-10-02 17:32:00,81.2,66.0,30.02,SW,223,0.0,0.0,60,0.00,,CLR,0.00,VWS V14.01,2013-10-02 21:32:00,
2013-10-02 17:37:00,80.7,66.0,30.02,SW,223,0.0,0.0,61,0.00,,CLR,0.00,VWS V14.01,2013-10-02 21:37:00,
2013-10-02 17:43:00,80.1,65.9,30.02,SW,223,0.0,1.0,62,0.00,,CLR,0.00,VWS V14.01,2013-10-02 21:43:00,
2013-10-02 17:45:00,82.6,65.3,30.03,SW,224,0.0,0.0,56,0.00,,CLR,0.00,VWS V14.01,2013-10-02 21:45:00,
2013-10-02 17:48:00,79.8,66.1,30.02,SW,223,0.0,1.0,63,0.00,,CLR,0.00,VWS V14.01,2013-10-02 21:48:00,
2013-10-02 17:53:00,79.6,65.9,30.02,SW,223,0.0,0.0,63,0.00,,CLR,0.00,VWS V14.01,2013-10-02 21:53:00,
2013-10-02 17:58:00,79.4,66.2,30.02,SW,223,0.0,0.0,64,0.00,,CLR,0.00,VWS V14.01,2013-10-02 21:58:00,
2013-10-02 18:00:00,83.6,65.7,30.03,SW,224,0.0,0.0,55,0.00,,CLR,0.00,VWS V14.01,2013-10-02 22:00:00,
2013-10-02 18:03:00,79.2,66.9,30.03,SW,223,0.0,0.0,66,0.00,,FEW047,0.00,VWS V14.01,2013-10-02 22:03:00,
2013-10-02 18:08:00,79.0,66.7,30.03,SW,223,0.0,0.0,66,0.00,,FEW047,0.00,VWS V14.01,2013-10-02 22:08:00,
2013-10-02 18:13:00,78.8,66.5,30.03,SW,223,0.0,0.0,66,0.00,,FEW047,0.00,VWS V14.01,2013-10-02 22:13:00,
2013-10-02 18:15:00,82.8,66.5,30.02,SW,223,0.0,0.0,58,0.00,,CLR,0.00,VWS V14.01,2013-10-02 22:15:00,
2013-10-02 18:18:00,78.6,67.2,30.03,SW,223,0.0,0.0,68,0.00,,FEW047,0.00,VWS V14.01,2013-10-02 22:18:00,
2013-10-02 18:23:00,78.5,67.1,30.03,SW,223,0.0,0.0,68,0.00,,FEW047,0.00,VWS V14.01,2013-10-02 22:23:00,
2013-10-02 18:28:00,78.1,66.7,30.03,SW,223,0.0,0.0,68,0.00,,FEW047,0.00,VWS V14.01,2013-10-02 22:28:00,
2013-10-02 18:30:00,81.4,65.7,30.02,SW,223,0.0,0.0,59,0.00,,CLR,0.00,VWS V14.01,2013-10-02 22:30:00,
2013-10-02 18:33:00,78.1,66.7,30.03,SW,223,0.0,0.0,68,0.00,,FEW047,0.00,VWS V14.01,2013-10-02 22:33:00,
2013-10-02 18:38:00,77.9,66.5,30.03,SW,223,0.0,0.0,68,0.00,,FEW047,0.00,VWS V14.01,2013-10-02 22:38:00,
2013-10-02 18:43:00,77.7,66.7,30.03,SW,222,0.0,0.0,69,0.00,,FEW047,0.00,VWS V14.01,2013-10-02 22:43:00,
2013-10-02 18:45:00,79.9,66.2,30.02,SW,223,0.0,1.0,63,0.00,,CLR,0.00,VWS V14.01,2013-10-02 22:45:00,
2013-10-02 18:48:00,77.4,66.4,30.03,SW,222,0.0,0.0,69,0.00,,FEW047,0.00,VWS V14.01,2013-10-02 22:48:00,
2013-10-02 18:53:00,77.0,66.1,30.03,SW,222,0.0,0.0,69,0.00,,FEW047,0.00,VWS V14.01,2013-10-02 22:53:00,
2013-10-02 18:58:00,76.7,66.2,30.03,SW,222,0.0,0.0,70,0.00,,FEW047,0.00,VWS V14.01,2013-10-02 22:58:00,
2013-10-02 19:00:00,79.2,66.4,30.03,SW,223,0.0,0.0,65,0.00,,CLR,0.00,VWS V14.01,2013-10-02 23:00:00,
2013-10-02 19:03:00,76.5,66.4,30.03,SW,222,0.0,0.0,71,0.00,,CLR,0.00,VWS V14.01,2013-10-02 23:03:00,
2013-10-02 19:08:00,76.0,66.3,30.03,SW,222,0.0,0.0,72,0.00,,CLR,0.00,VWS V14.01,2013-10-02 23:08:00,
2013-10-02 19:13:00,75.6,66.3,30.03,SW,222,0.0,0.0,73,0.00,,CLR,0.00,VWS V14.01,2013-10-02 23:13:00,
2013-10-02 19:15:00,78.8,66.9,30.03,SW,223,0.0,0.0,67,0.00,,CLR,0.00,VWS V14.01,2013-10-02 23:15:00,
2013-10-02 19:18:00,75.1,66.2,30.04,SW,222,0.0,0.0,74,0.00,,CLR,0.00,VWS V14.01,2013-10-02 23:18:00,
2013-10-02 19:23:00,74.6,66.2,30.04,SW,222,0.0,0.0,75,0.00,,CLR,0.00,VWS V14.01,2013-10-02 23:23:00,
2013-10-02 19:28:00,74.2,65.8,30.04,SW,222,0.0,0.0,75,0.00,,CLR,0.00,VWS V14.01,2013-10-02 23:28:00,
2013-10-02 19:30:00,78.1,66.7,30.03,SW,223,0.0,0.0,68,0.00,,CLR,0.00,VWS V14.01,2013-10-02 23:30:00,
2013-10-02 19:33:00,73.7,66.1,30.04,SW,222,0.0,0.0,77,0.00,,CLR,0.00,VWS V14.01,2013-10-02 23:33:00,
2013-10-02 19:38:00,73.2,65.9,30.04,SW,222,0.0,0.0,78,0.00,,CLR,0.00,VWS V14.01,2013-10-02 23:38:00,
2013-10-02 19:43:00,72.8,65.6,30.04,SW,222,0.0,0.0,78,0.00,,CLR,0.00,VWS V14.01,2013-10-02 23:43:00,
2013-10-02 19:45:00,77.6,66.6,30.03,SW,222,0.0,0.0,69,0.00,,CLR,0.00,VWS V14.01,2013-10-02 23:45:00,
2013-10-02 19:48:00,72.3,65.4,30.04,SW,222,0.0,0.0,79,0.00,,CLR,0.00,VWS V14.01,2013-10-02 23:48:00,
2013-10-02 19:49:00,72.3,65.8,30.04,SW,222,0.0,0.0,80,0.00,,CLR,0.00,VWS V14.01,2013-10-02 23:49:00,
2013-10-02 19:54:00,71.8,65.3,30.04,SW,222,0.0,0.0,80,0.00,,CLR,0.00,VWS V14.01,2013-10-02 23:54:00,
2013-10-02 19:59:00,71.5,65.4,30.05,SW,222,0.0,0.0,81,0.00,,CLR,0.00,VWS V14.01,2013-10-02 23:59:00,
2013-10-02 20:00:00,76.7,66.2,30.03,SW,222,0.0,0.0,70,0.00,,CLR,0.00,VWS V14.01,2013-10-03 00:00:00,
2013-10-02 20:04:00,71.1,65.0,30.05,SW,222,0.0,0.0,81,0.00,,SCT048,0.00,VWS V14.01,2013-10-03 00:04:00,
2013-10-02 20:09:00,70.8,65.0,30.05,SW,222,0.0,0.0,82,0.00,,SCT048,0.00,VWS V14.01,2013-10-03 00:09:00,
2013-10-02 20:14:00,70.4,65.0,30.05,SW,222,0.0,0.0,83,0.00,,SCT048,0.00,VWS V14.01,2013-10-03 00:14:00,
2013-10-02 20:15:00,75.3,66.1,30.04,SW,222,0.0,0.0,73,0.00,,CLR,0.00,VWS V14.01,2013-10-03 00:15:00,
2013-10-02 20:19:00,70.3,64.9,30.05,SW,222,0.0,0.0,83,0.00,,SCT048,0.00,VWS V14.01,2013-10-03 00:19:00,
2013-10-02 20:24:00,69.9,64.8,30.05,SW,222,0.0,0.0,84,0.00,,SCT048,0.00,VWS V14.01,2013-10-03 00:24:00,
2013-10-02 20:29:00,69.8,65.1,30.05,SW,222,0.0,0.0,85,0.00,,SCT048,0.00,VWS V14.01,2013-10-03 00:29:00,
2013-10-02 20:30:00,74.0,66.0,30.04,SW,222,0.0,0.0,76,0.00,,CLR,0.00,VWS V14.01,2013-10-03 00:30:00,
2013-10-02 20:34:00,69.6,65.2,30.05,SW,222,0.0,0.0,86,0.00,,SCT048,0.00,VWS V14.01,2013-10-03 00:34:00,
2013-10-02 20:39:00,69.3,64.9,30.05,SW,222,0.0,0.0,86,0.00,,SCT048,0.00,VWS V14.01,2013-10-03 00:39:00,
2013-10-02 20:44:00,69.1,64.7,30.05,SW,222,0.0,0.0,86,0.00,,SCT048,0.00,VWS V14.01,2013-10-03 00:44:00,
2013-10-02 20:45:00,72.7,65.8,30.04,SW,222,0.0,0.0,79,0.00,,CLR,0.00,VWS V14.01,2013-10-03 00:45:00,
2013-10-02 20:49:00,68.9,64.6,30.05,SW,222,0.0,0.0,86,0.00,,SCT048,0.00,VWS V14.01,2013-10-03 00:49:00,
2013-10-02 20:54:00,68.8,64.4,30.05,SW,222,0.0,0.0,86,0.00,,SCT048,0.00,VWS V14.01,2013-10-03 00:54:00,
2013-10-02 20:59:00,68.8,64.8,30.05,SW,222,0.0,0.0,87,0.00,,SCT048,0.00,VWS V14.01,2013-10-03 00:59:00,
2013-10-02 21:00:00,71.5,65.4,30.05,SW,222,0.0,0.0,81,0.00,,CLR,0.00,VWS V14.01,2013-10-03 01:00:00,
2013-10-02 21:04:00,68.6,64.6,30.05,SW,222,0.0,0.0,87,0.00,,BKN070,0.00,VWS V14.01,2013-10-03 01:04:00,
2013-10-02 21:09:00,68.6,64.9,30.05,SW,222,0.0,0.0,88,0.00,,BKN070,0.00,VWS V14.01,2013-10-03 01:09:00,
2013-10-02 21:14:00,68.6,64.9,30.04,SW,222,0.0,0.0,88,0.00,,BKN070,0.00,VWS V14.01,2013-10-03 01:14:00,
2013-10-02 21:15:00,70.4,65.0,30.05,SW,222,0.0,0.0,83,0.00,,CLR,0.00,VWS V14.01,2013-10-03 01:15:00,
2013-10-02 21:19:00,68.4,64.7,30.04,SW,222,0.0,0.0,88,0.00,,BKN070,0.00,VWS V14.01,2013-10-03 01:19:00,
2013-10-02 21:24:00,68.3,64.6,30.04,SW,222,0.0,0.0,88,0.00,,BKN070,0.00,VWS V14.01,2013-10-03 01:24:00,
2013-10-02 21:29:00,68.3,64.6,30.04,SW,222,0.0,0.0,88,0.00,,BKN070,0.00,VWS V14.01,2013-10-03 01:29:00,
2013-10-02 21:30:00,69.8,65.1,30.05,SW,222,0.0,0.0,85,0.00,,CLR,0.00,VWS V14.01,2013-10-03 01:30:00,
2013-10-02 21:34:00,68.1,64.4,30.04,SW,222,0.0,0.0,88,0.00,,BKN070,0.00,VWS V14.01,2013-10-03 01:34:00,
2013-10-02 21:39:00,68.1,64.4,30.04,SW,222,0.0,0.0,88,0.00,,BKN070,0.00,VWS V14.01,2013-10-03 01:39:00,
2013-10-02 21:44:00,67.9,64.5,30.04,SW,222,0.0,0.0,89,0.00,,BKN070,0.00,VWS V14.01,2013-10-03 01:44:00,
2013-10-02 21:45:00,69.1,64.7,30.05,SW,222,0.0,0.0,86,0.00,,CLR,0.00,VWS V14.01,2013-10-03 01:45:00,
2013-10-02 21:49:00,68.1,64.7,30.04,SW,222,0.0,0.0,89,0.00,,BKN070,0.00,VWS V14.01,2013-10-03 01:49:00,
2013-10-02 21:54:00,68.3,65.3,30.04,SW,222,0.0,0.0,90,0.00,,BKN070,0.00,VWS V14.01,2013-10-03 01:54:00,
2013-10-02 21:59:00,68.3,64.9,30.04,SW,222,0.0,0.0,89,0.00,,BKN070,0.00,VWS V14.01,2013-10-03 01:59:00,
2013-10-02 22:00:00,68.6,64.6,30.05,SW,222,0.0,0.0,87,0.00,,CLR,0.00,VWS V14.01,2013-10-03 02:00:00,
2013-10-02 22:04:00,68.3,65.3,30.04,SW,222,0.0,0.0,90,0.00,,,0.00,VWS V14.01,2013-10-03 02:04:00,
2013-10-02 22:05:00,68.3,64.9,30.04,SW,222,0.0,0.0,89,0.00,,,0.00,VWS V14.01,2013-10-03 02:05:00,
2013-10-02 22:10:00,68.3,64.9,30.04,SW,222,0.0,0.0,89,0.00,,,0.00,VWS V14.01,2013-10-03 02:10:00,
2013-10-02 22:15:00,68.1,64.7,30.04,SW,222,0.0,0.0,89,0.00,,,0.00,VWS V14.01,2013-10-03 02:15:00,
2013-10-02 22:20:00,68.1,65.1,30.04,SW,222,0.0,0.0,90,0.00,,,0.00,VWS V14.01,2013-10-03 02:20:00,
2013-10-02 22:25:00,68.3,65.3,30.04,SW,222,0.0,0.0,90,0.00,,,0.00,VWS V14.01,2013-10-03 02:25:00,
2013-10-02 22:30:00,68.1,65.1,30.04,SW,222,0.0,0.0,90,0.00,,,0.00,VWS V14.01,2013-10-03 02:30:00,
2013-10-02 22:35:00,68.1,65.1,30.04,SW,222,0.0,0.0,90,0.00,,,0.00,VWS V14.01,2013-10-03 02:35:00,
2013-10-02 22:40:00,67.9,64.9,30.04,SW,222,0.0,0.0,90,0.00,,,0.00,VWS V14.01,2013-10-03 02:40:00,
2013-10-02 22:45:00,67.9,64.9,30.04,SW,222,0.0,0.0,90,0.00,,,0.00,VWS V14.01,2013-10-03 02:45:00,
2013-10-02 22:50:00,67.9,64.9,30.04,SW,222,0.0,0.0,90,0.00,,,0.00,VWS V14.01,2013-10-03 02:50:00,
2013-10-02 22:55:00,67.9,64.9,30.04,SW,222,0.0,0.0,90,0.00,,,0.00,VWS V14.01,2013-10-03 02:55:00,
2013-10-02 23:00:00,67.9,64.9,30.04,SW,222,0.0,0.0,90,0.00,,,0.00,VWS V14.01,2013-10-03 03:00:00,
2013-10-02 23:05:00,67.9,64.9,30.04,SW,222,0.0,0.0,90,0.00,,,0.00,VWS V14.01,2013-10-03 03:05:00,
2013-10-02 23:10:00,67.9,64.9,30.04,SW,222,0.0,0.0,90,0.00,,,0.00,VWS V14.01,2013-10-03 03:10:00,
2013-10-02 23:15:00,67.9,64.9,30.04,SW,222,0.0,0.0,90,0.00,,,0.00,VWS V14.01,2013-10-03 03:15:00,
2013-10-02 23:20:00,67.9,64.9,30.04,SW,222,0.0,0.0,90,0.00,,,0.00,VWS V14.01,2013-10-03 03:20:00,
2013-10-02 23:25:00,67.8,65.1,30.04,SW,222,0.0,0.0,91,0.00,,,0.00,VWS V14.01,2013-10-03 03:25:00,
2013-10-02 23:30:00,67.8,65.1,30.04,SW,222,0.0,0.0,91,0.00,,,0.00,VWS V14.01,2013-10-03 03:30:00,
2013-10-02 23:35:00,67.8,64.8,30.04,SW,222,0.0,0.0,90,0.00,,,0.00,VWS V14.01,2013-10-03 03:35:00,
2013-10-02 23:40:00,67.6,64.6,30.04,SW,222,0.0,0.0,90,0.00,,,0.00,VWS V14.01,2013-10-03 03:40:00,
2013-10-02 23:45:00,67.4,64.4,30.04,SW,222,0.0,0.0,90,0.00,,,0.00,VWS V14.01,2013-10-03 03:45:00,
2013-10-02 23:50:00,67.4,64.4,30.04,SW,222,0.0,0.0,90,0.00,,,0.00,VWS V14.01,2013-10-03 03:50:00,
2013-10-02 23:55:00,67.3,64.6,30.04,SW,222,0.0,0.0,91,0.00,,,0.00,VWS V14.01,2013-10-03 03:55:00,